Location: Zagreb
(45.8000°N, 16.0000°E)
Time: 13:41:40
(UTC+02:00)

Vanguard 1 - Pass Details

Date: 08 August 2022
Orbit: 649 x 3832 km, 34.2° (Epoch: 25 September)

Event Time Altitude Azimuth Distance (km) Brightness Sun altitude
Rises 09:43:03 0° 270° (W) 7,439 14.1 39.2°
Reaches altitude 10° 09:47:52 10° 266° (W) 6,652 14.0 40.0°
Maximum altitude 10:09:55 55° 198° (SSW) 4,204 13.9 43.6°
Drops below altitude 10° 10:28:37 10° 127° (SE) 5,744 15.0 46.4°
Sets 10:32:25 0° 123° (ESE) 6,415 14.9 47.0°
